Location: Regona
(45.2000°N, 9.8167°E)
Time: 09:54:02
(UTC+00:00)

Cosmos 1076 Rocket - Pass Details

Date: 07 June 2020
Orbit: 588 x 614 km, 82.5° (Epoch: 07 July)

Event Time Altitude Azimuth Distance (km) Brightness Sun altitude
Exits shadow 01:39:50 22° 186° (S) 1,350 4.8 -14.9°
Maximum altitude 01:42:37 87° 101° (E) 621 3.5 -14.6°
Drops below altitude 10° 01:47:02 10° 9° (N) 1,981 7.2 -14.2°
Sets 01:49:15 0° 10° (N) 2,889 8.2 -14.0°
